Time,TemperatureF,DewpointF,PressureIn,WindDirection,WindDirectionDegrees,WindSpeedMPH,WindSpeedGustMPH,Humidity,HourlyPrecipIn,Conditions,Clouds,dailyrainin,SoftwareType,DateUTC
2013-01-16 00:08:00,32.9,32.4,30.09,NE,45,2.2,-999.0,98,-99.99,,,0.00,Acu-Link.com,2013-01-16 05:08:00,
2013-01-16 00:23:00,32.5,32.0,30.09,East,90,0.0,-999.0,98,-99.99,,,0.00,Acu-Link.com,2013-01-16 05:23:00,
2013-01-16 00:38:00,32.4,31.9,30.08,NE,45,0.0,-999.0,98,-99.99,,,0.00,Acu-Link.com,2013-01-16 05:38:00,
2013-01-16 00:54:00,31.6,28.7,30.06,SE,135,0.0,-999.0,89,-99.99,,,0.00,Acu-Link.com,2013-01-16 05:54:00,
2013-01-16 01:09:00,31.5,22.2,30.07,NE,45,0.0,-999.0,68,-99.99,,,0.00,Acu-Link.com,2013-01-16 06:09:00,
2013-01-16 01:24:00,31.3,11.4,30.06,ESE,112,0.0,-999.0,43,-99.99,,,0.00,Acu-Link.com,2013-01-16 06:24:00,
2013-01-16 01:40:00,31.3,-7.2,30.05,ESE,112,0.0,-999.0,18,-99.99,,,0.00,Acu-Link.com,2013-01-16 06:40:00,
2013-01-16 01:55:00,30.9,-58.8,30.03,NE,45,1.7,-999.0,0,-99.99,,,0.00,Acu-Link.com,2013-01-16 06:55:00,
2013-01-16 02:10:00,31.1,-58.6,30.04,East,90,1.7,-999.0,0,-99.99,,,0.00,Acu-Link.com,2013-01-16 07:10:00,
2013-01-16 02:25:00,31.1,-58.6,30.05,NNE,22,1.7,-999.0,0,-99.99,,,0.00,Acu-Link.com,2013-01-16 07:25:00,
2013-01-16 02:41:00,31.3,-58.5,30.02,NE,45,2.2,-999.0,0,-99.99,,,0.00,Acu-Link.com,2013-01-16 07:41:00,
2013-01-16 02:56:00,31.3,-58.5,30.02,NE,45,1.7,-999.0,0,-99.99,,,0.00,Acu-Link.com,2013-01-16 07:56:00,
2013-01-16 03:11:00,31.5,-58.4,30.02,NE,45,1.7,-999.0,0,-99.99,,,0.00,Acu-Link.com,2013-01-16 08:11:00,
2013-01-16 03:27:00,31.3,-58.5,29.99,NNE,22,1.7,-999.0,0,-99.99,,,0.00,Acu-Link.com,2013-01-16 08:27:00,
2013-01-16 03:42:00,31.5,-58.4,29.99,ENE,67,2.2,-999.0,0,-99.99,,,0.00,Acu-Link.com,2013-01-16 08:42:00,
2013-01-16 03:58:00,31.6,-58.3,29.98,NE,45,2.2,-999.0,0,-99.99,,,0.00,Acu-Link.com,2013-01-16 08:58:00,
2013-01-16 04:22:00,31.6,-58.3,29.97,NE,45,2.2,-999.0,0,-99.99,,,0.00,Acu-Link.com,2013-01-16 09:22:00,
2013-01-16 04:37:00,32.0,-58.1,29.95,NE,45,1.7,-999.0,0,-99.99,,,0.00,Acu-Link.com,2013-01-16 09:37:00,
2013-01-16 04:53:00,32.2,-57.9,29.94,East,90,1.7,-999.0,0,-99.99,,,0.00,Acu-Link.com,2013-01-16 09:53:00,
2013-01-16 05:08:00,32.4,-57.8,29.95,NNE,22,1.7,-999.0,0,-99.99,,,0.00,Acu-Link.com,2013-01-16 10:08:00,
2013-01-16 05:23:00,32.9,-57.5,29.92,SW,225,0.0,-999.0,0,-99.99,,,0.00,Acu-Link.com,2013-01-16 10:23:00,
2013-01-16 05:38:00,33.8,-56.9,29.93,SW,225,0.0,-999.0,0,-99.99,,,0.00,Acu-Link.com,2013-01-16 10:38:00,
2013-01-16 05:54:00,34.0,-56.8,29.91,East,90,0.0,-999.0,0,-99.99,,,0.00,Acu-Link.com,2013-01-16 10:54:00,
2013-01-16 06:09:00,34.0,-56.8,29.92,East,90,0.0,-999.0,0,-99.99,,,0.00,Acu-Link.com,2013-01-16 11:09:00,
2013-01-16 06:24:00,34.5,-56.5,29.92,ESE,112,0.0,-999.0,0,-99.99,,,0.00,Acu-Link.com,2013-01-16 11:24:00,
2013-01-16 06:40:00,34.0,-56.8,29.93,NE,45,0.0,-999.0,0,-99.99,,,0.00,Acu-Link.com,2013-01-16 11:40:00,
2013-01-16 06:55:00,33.8,-56.9,29.91,NE,45,1.7,-999.0,0,-99.99,,,0.00,Acu-Link.com,2013-01-16 11:55:00,
2013-01-16 07:10:00,34.2,-56.7,29.90,ENE,67,0.0,-999.0,0,-99.99,,,0.00,Acu-Link.com,2013-01-16 12:10:00,
2013-01-16 07:25:00,34.3,-56.6,29.91,SSW,202,0.0,-999.0,0,-99.99,,,0.00,Acu-Link.com,2013-01-16 12:25:00,
2013-01-16 07:40:00,34.0,-56.8,29.90,East,90,0.0,-999.0,0,-99.99,,,0.00,Acu-Link.com,2013-01-16 12:40:00,
2013-01-16 07:56:00,33.8,-56.9,29.90,NE,45,1.7,-999.0,0,-99.99,,,0.00,Acu-Link.com,2013-01-16 12:56:00,
2013-01-16 08:11:00,33.8,-56.9,29.89,NE,45,2.2,-999.0,0,-99.99,,,0.00,Acu-Link.com,2013-01-16 13:11:00,
2013-01-16 08:26:00,33.8,-56.9,29.89,NE,45,1.7,-999.0,0,-99.99,,,0.00,Acu-Link.com,2013-01-16 13:26:00,
2013-01-16 08:42:00,33.8,-56.9,29.87,SSE,157,1.7,-999.0,0,-99.99,,,0.00,Acu-Link.com,2013-01-16 13:42:00,
2013-01-16 08:57:00,34.2,-56.7,29.84,East,90,1.7,-999.0,0,-99.99,,,0.00,Acu-Link.com,2013-01-16 13:57:00,
2013-01-16 09:12:00,34.2,-56.7,29.85,SSE,157,1.1,-999.0,0,-99.99,,,0.00,Acu-Link.com,2013-01-16 14:12:00,
2013-01-16 09:28:00,34.0,-56.8,29.82,ENE,67,1.7,-999.0,0,-99.99,,,0.00,Acu-Link.com,2013-01-16 14:28:00,
2013-01-16 09:43:00,34.3,-56.6,29.82,NE,45,1.7,-999.0,0,-99.99,,,0.00,Acu-Link.com,2013-01-16 14:43:00,
2013-01-16 09:58:00,34.3,-56.6,29.78,ENE,67,2.2,-999.0,0,-99.99,,,0.00,Acu-Link.com,2013-01-16 14:58:00,
2013-01-16 10:13:00,35.1,-56.1,29.81,NE,45,0.0,-999.0,0,-99.99,,,0.00,Acu-Link.com,2013-01-16 15:13:00,
2013-01-16 10:29:00,35.4,-56.0,29.81,NW,315,0.0,-999.0,0,-99.99,,,0.00,Acu-Link.com,2013-01-16 15:29:00,
2013-01-16 10:44:00,36.0,-55.6,29.79,South,180,0.0,-999.0,0,-99.99,,,0.00,Acu-Link.com,2013-01-16 15:44:00,
2013-01-16 10:59:00,36.1,-55.5,29.82,West,270,0.0,-999.0,0,-99.99,,,0.00,Acu-Link.com,2013-01-16 15:59:00,
2013-01-16 11:15:00,36.5,-55.3,29.80,West,270,0.0,-999.0,0,-99.99,,,0.00,Acu-Link.com,2013-01-16 16:15:00,
2013-01-16 11:30:00,36.5,-55.3,29.80,West,270,0.0,-999.0,0,-99.99,,,0.00,Acu-Link.com,2013-01-16 16:30:00,
2013-01-16 11:45:00,36.3,-55.4,29.79,WNW,292,0.0,-999.0,0,-99.99,,,0.00,Acu-Link.com,2013-01-16 16:45:00,
2013-01-16 12:01:00,36.7,-55.1,29.78,NNW,337,0.0,-999.0,0,-99.99,,,0.00,Acu-Link.com,2013-01-16 17:01:00,
2013-01-16 12:16:00,36.9,-55.0,29.78,East,90,0.0,-999.0,0,-99.99,,,0.00,Acu-Link.com,2013-01-16 17:16:00,
2013-01-16 12:31:00,36.1,-55.5,29.76,ENE,67,0.0,-999.0,0,-99.99,,,0.00,Acu-Link.com,2013-01-16 17:31:00,
2013-01-16 12:46:00,36.1,-55.5,29.70,ESE,112,0.0,-999.0,0,-99.99,,,0.00,Acu-Link.com,2013-01-16 17:46:00,
2013-01-16 13:02:00,36.3,-55.4,29.72,NE,45,1.7,-999.0,0,-99.99,,,0.00,Acu-Link.com,2013-01-16 18:02:00,
2013-01-16 13:17:00,36.5,-55.3,29.65,East,90,1.7,-999.0,0,-99.99,,,0.00,Acu-Link.com,2013-01-16 18:17:00,
2013-01-16 13:32:00,36.3,-55.4,29.62,ESE,112,0.0,-999.0,0,-99.99,,,0.00,Acu-Link.com,2013-01-16 18:32:00,
2013-01-16 13:48:00,36.7,-55.1,29.66,SSE,157,0.0,-999.0,0,-99.99,,,0.00,Acu-Link.com,2013-01-16 18:48:00,
2013-01-16 14:03:00,36.9,-55.0,29.69,SE,135,0.0,-999.0,0,-99.99,,,0.00,Acu-Link.com,2013-01-16 19:03:00,
2013-01-16 14:18:00,36.9,-55.0,29.69,West,270,1.7,-999.0,0,-99.99,,,0.00,Acu-Link.com,2013-01-16 19:18:00,
2013-01-16 14:34:00,37.2,-54.8,29.73,WSW,247,1.7,-999.0,0,-99.99,,,0.00,Acu-Link.com,2013-01-16 19:34:00,
2013-01-16 14:49:00,38.3,-54.2,29.70,West,270,0.0,-999.0,0,-99.99,,,0.00,Acu-Link.com,2013-01-16 19:49:00,
2013-01-16 15:04:00,38.3,-54.2,29.72,WSW,247,0.0,-999.0,0,-99.99,,,0.00,Acu-Link.com,2013-01-16 20:04:00,
2013-01-16 15:19:00,38.5,-54.0,29.71,SSW,202,0.0,-999.0,0,-99.99,,,0.00,Acu-Link.com,2013-01-16 20:19:00,
2013-01-16 15:35:00,38.7,-53.9,29.70,West,270,0.0,-999.0,0,-99.99,,,0.00,Acu-Link.com,2013-01-16 20:35:00,
2013-01-16 15:50:00,38.8,-53.8,29.71,West,270,0.0,-999.0,0,-99.99,,,0.00,Acu-Link.com,2013-01-16 20:50:00,
2013-01-16 16:05:00,39.0,-53.7,29.72,WSW,247,0.0,-999.0,0,-99.99,,,0.00,Acu-Link.com,2013-01-16 21:05:00,
2013-01-16 16:21:00,39.2,-53.6,29.72,WNW,292,0.0,-999.0,0,-99.99,,,0.00,Acu-Link.com,2013-01-16 21:21:00,
2013-01-16 16:36:00,39.2,-53.6,29.70,SW,225,0.0,-999.0,0,-99.99,,,0.00,Acu-Link.com,2013-01-16 21:36:00,
2013-01-16 16:51:00,39.6,-53.3,29.70,West,270,0.0,-999.0,0,-99.99,,,0.00,Acu-Link.com,2013-01-16 21:51:00,
2013-01-16 17:07:00,39.6,-53.3,29.70,West,270,0.0,-999.0,0,-99.99,,,0.00,Acu-Link.com,2013-01-16 22:07:00,
2013-01-16 17:22:00,39.6,-53.3,29.70,WSW,247,0.0,-999.0,0,-99.99,,,0.00,Acu-Link.com,2013-01-16 22:22:00,
2013-01-16 17:37:00,39.7,-53.3,29.70,SW,225,0.0,-999.0,0,-99.99,,,0.00,Acu-Link.com,2013-01-16 22:37:00,
2013-01-16 17:52:00,39.7,-53.3,29.73,SW,225,0.0,-999.0,0,-99.99,,,0.00,Acu-Link.com,2013-01-16 22:52:00,
2013-01-16 18:08:00,39.7,-53.3,29.73,SSW,202,0.0,-999.0,0,-99.99,,,0.00,Acu-Link.com,2013-01-16 23:08:00,
2013-01-16 18:23:00,39.7,-53.3,29.70,SSW,202,0.0,-999.0,0,-99.99,,,0.00,Acu-Link.com,2013-01-16 23:23:00,
2013-01-16 18:38:00,39.7,-53.3,29.72,SSW,202,0.0,-999.0,0,-99.99,,,0.00,Acu-Link.com,2013-01-16 23:38:00,
2013-01-16 18:53:00,39.7,-53.3,29.72,SW,225,3.2,-999.0,0,-99.99,,,0.00,Acu-Link.com,2013-01-16 23:53:00,
2013-01-16 19:09:00,39.7,-53.3,29.72,SSW,202,2.7,-999.0,0,-99.99,,,0.00,Acu-Link.com,2013-01-17 00:09:00,
2013-01-16 19:24:00,39.9,-53.2,29.72,WSW,247,0.0,-999.0,0,-99.99,,,0.00,Acu-Link.com,2013-01-17 00:24:00,
2013-01-16 19:39:00,39.9,-53.2,29.72,SSW,202,0.0,-999.0,0,-99.99,,,0.00,Acu-Link.com,2013-01-17 00:39:00,
2013-01-16 19:55:00,40.1,-53.0,29.73,SSW,202,1.7,-999.0,0,-99.99,,,0.00,Acu-Link.com,2013-01-17 00:55:00,
2013-01-16 20:10:00,39.9,-53.2,29.72,WSW,247,3.7,-999.0,0,-99.99,,,0.00,Acu-Link.com,2013-01-17 01:10:00,
2013-01-16 20:25:00,39.9,-53.2,29.72,West,270,0.0,-999.0,0,-99.99,,,0.00,Acu-Link.com,2013-01-17 01:25:00,
2013-01-16 20:40:00,39.7,-53.3,29.70,West,270,0.0,-999.0,0,-99.99,,,0.00,Acu-Link.com,2013-01-17 01:40:00,
2013-01-16 20:56:00,39.7,-53.3,29.73,SW,225,0.0,-999.0,0,-99.99,,,0.00,Acu-Link.com,2013-01-17 01:56:00,
2013-01-16 21:11:00,39.6,-53.3,29.73,SSW,202,0.0,-999.0,0,-99.99,,,0.00,Acu-Link.com,2013-01-17 02:11:00,
2013-01-16 21:26:00,39.6,-53.3,29.74,West,270,0.0,-999.0,0,-99.99,,,0.00,Acu-Link.com,2013-01-17 02:26:00,
2013-01-16 21:42:00,39.2,-53.6,29.74,West,270,0.0,-999.0,0,-99.99,,,0.00,Acu-Link.com,2013-01-17 02:42:00,
2013-01-16 21:57:00,39.2,-53.6,29.73,WSW,247,0.0,-999.0,0,-99.99,,,0.00,Acu-Link.com,2013-01-17 02:57:00,
2013-01-16 22:12:00,39.2,-53.6,29.73,SSW,202,0.0,-999.0,0,-99.99,,,0.00,Acu-Link.com,2013-01-17 03:12:00,
2013-01-16 22:28:00,39.2,-53.6,29.72,SW,225,0.0,-999.0,0,-99.99,,,0.00,Acu-Link.com,2013-01-17 03:28:00,
2013-01-16 22:43:00,39.0,-53.7,29.72,WSW,247,0.0,-999.0,0,-99.99,,,0.00,Acu-Link.com,2013-01-17 03:43:00,
2013-01-16 22:58:00,38.8,-53.8,29.72,SSW,202,0.0,-999.0,0,-99.99,,,0.00,Acu-Link.com,2013-01-17 03:58:00,
2013-01-16 23:13:00,38.8,-53.8,29.72,WNW,292,0.0,-999.0,0,-99.99,,,0.00,Acu-Link.com,2013-01-17 04:13:00,
2013-01-16 23:29:00,38.7,-53.9,29.71,West,270,0.0,-999.0,0,-99.99,,,0.00,Acu-Link.com,2013-01-17 04:29:00,
2013-01-16 23:44:00,38.7,-53.9,29.74,SW,225,0.0,-999.0,0,-99.99,,,0.00,Acu-Link.com,2013-01-17 04:44:00,
2013-01-16 23:59:00,39.0,-53.7,29.73,SW,225,0.0,-999.0,0,-99.99,,,0.00,Acu-Link.com,2013-01-17 04:59:00,